Probability
0 0 0 0 0 0 0 0 0 0 0 0 0 0 0 0 0 0 0 0 0 0 0 0 0 0 0 0 0 0 0 0 0 0 0 0 0 0 0 0 0 0 0 0
0 0 0 0 0 0 0 0 0 0 0 0 0 0 0 0 0 0 0 0 0 0 0 0 0 0 0 0 0 0 0 0 0 0 0 0 0 0 0 0 0 0 0 0
0 0 0 0 0 0 0 0 0 0 0 0 0 0 0 0 0 0 0 0 0 0 0 0 0 0 0 0 0 0 0 0 0 0 0 0 0 0 0 0 0 0 0 0
0 0 0 0 0 0 0 0 0 0 0 0 0 0 0 0 0 0 0 0 0 0 0 0 0 0 0 0 0 0 0 0 0 0 0 0 0 0 0 0 0 0 0 0
0 0 0 0 0 0 0 0 0 0 0 0 0 0 0 0 0 0 0 0 0 0 0 0 0 0 0 0 0 0 0 0 0 0 0 0 0 0 0 0 0 0 0 0
0 0 0 0 0 0 0 0 0 0 0 0 0 0 0 0 0 0 0 0 0 0 0 0 0 0 0 0 0 0 0 0 0 0 0 0 0 0 0 0 0 0 0 0
0 0 0 0 0 0 0 0 0 0 0 0 0 0 0 0 0 0 0 0 0 0 0 0 0 0 0 0 0 0 0 0 0 0 0 0 0 0 0 0 0 0 0 0
0 0 0 0 0 0 0 0 0 0 0 0 0 0 0 0 0 0 0 0 0 0 0 0 0 0 0 0 0 0 0 0 0 0 0 0 0 0 0 0 0 0 0 0
0 0 0 0 0 0 0 0 0 0 0 0 0 0 0 0 0 0 0 0 0 0 0 0 0 0 0 0 0 0 0 0 0 0 0 0 0 0 0 0 0 0 0 0
0 0 0 0 0 0 0 0 0 0 0 0 0 0 0 0 0 0 0 0 0 0 0 0 0 0 0 0 0 0 0 0 0 0 0 0 0 0 0 0 0 0 0 0
0 0 0 0 0 0 0 0 0 0 0 0 0 0 0 0 0 0 0 0 0 0 0 0 0 0 0 0 0 0 0 0 0 0 0 0 0 0 0 0 0 0 0 0
0 0 0 0 0 0 0 0 0 0 0 0 0 0 0 0 0 0 0 0 0 0 0 0 0 0 0 0 0 0 0 0 0 0 0 0 0 0 0 0 0 0 0 0
0 0 0 0 0 0 0 0 0 0 0 0 0 0 0 0 0 0 0 0 0 0 0 0 0 0 0 0 0 0 0 0 0 0 0 0 0 0 0 0 0 0 0 0
0 0 0 0 0 0 0 0 0 0 0 0 0 0 0 0 0 0 0 0 0 0 0 0 0 0 0 0 0 0 0 0 0 0 0 0 0 0 0 0 0 0 0 0
0 0 0 0 0 0 0 0 0 0 0 0 0 0 0 0 0 0 0 0 0 0 0 0 0 0 0 0 0 0 0 0 0 0 0 0 0 0 0 0 0 0 0 0
0 0 0 0 0 0 0 0 0 0 0 0 0 0 0 0 0 0 0 0 0 0 0 0 0 0 0 0 0 0 0 0 0 0 0 0 0 0 0 0 0 0 0 0
0 0 0 0 0 0 0 0 0 0 0 0 0 0 0 0 0 0 0 0 0 0 0 0 0 0 0 0 0 0 0 0 0 0 0 0 0 0 0 0 0 0 0 0
0 0 0 0 0 0 0 0 0 0 0 0 0 0 0 0 0 0 0 0 0 0 0 0 0 0 0 0 0 0 0 0 0 0 0 0 0 0 0 0 0 0 0 0
0 0 0 0 0 0 0 0 0 0 0 0 0 0 0 0 0 0 0 0 0 0 0 0 0 0 0 0 0 0 0 0 0 0 0 0 0 0 0 0 0 0 0 0
0 0 0 0 0 0 0 0 0 0 0 0 0 0 0 0 0 0 0 0 0 0 0 0 0 0 0 0 0 0 0 0 0 0 0 0 0 0 0 0 0 0 0 0
0 0 0 0 0 0 0 0 0 0 0 0 0 0 0 0 0 0 0 0 0 0 0 0 0 0 0 0 0 0 0 0 0 0 0 0 0 0 0 0 0 0 0 0
0 0 0 0 0 0 0 0 0 0 0 0 0 0 0 0 0 0 0 0 0 0 0 0 0 0 0 0 0 0 0 0 0 0 0 0 0 0 0 0 0 0 0 0
0 0 0 0 0 0 0 0 0 0 0 0 0 0 0 0 0 0 0 0 0 0 0 0 0 0 0 0 0 0 0 0 0 0 0 0 0 0 0 0 0 0 0 0
0 0 0 0 0 0 0 0 0 0 0 0 0 0 0 0 0 0 0 0 0 0 0 0 0 0 0 0 0 0 0 0 0 0 0 0 0 0 0 0 0 0 0 0
0 0 0 0 0 0 0 0 0 0 0 0 0 0 0 0 0 0 0 0 0 0 0 0 0 0 0 0 0 0 0 0 0 0 0 0 0 0 0 0 0 0 0 0
0 0 0 0 0 0 0 0 0 0 0 0 0 0 0 0 0 0 0 0 0 0 0 0 0 0 0 0 0 0 0 0 0 0 0 0 0 0 0 0 0 0 0 0
0 0 0 0 0 0 0 0 0 0 0 0 0 0 0 0 0 0 0 0 0 0 0 0 0 0 0 0 0 0 0 0 0 0 0 0 0 0 0 0 0 0 0 0
Wind_Speed
9 7 6 9 11 12 14 13 13 14 14 12 6 5 4 3 3 2 2 2 2 1 1 1 1 1 1 1 1 1 1 1 1 1 1 1 1 1 1 1 1 1 1 2
7 7 7 11 14 14 16 15 17 16 17 9 6 4 3 3 3 3 3 3 3 2 2 2 2 2 2 2 1 1 1 1 1 1 1 1 1 1 1 2 2 2 2 2
7 4 4 13 14 14 12 11 11 15 15 4 4 5 5 5 4 4 4 4 3 3 3 3 2 2 2 2 1 1 1 1 1 1 1 1 1 1 1 2 2 2 2 2
3 2 11 11 4 9 12 12 10 9 7 5 6 5 5 4 4 4 3 2 2 2 2 2 2 2 1 1 1 1 1 1 1 1 2 2 2 2 2 2 2 2 3 3
4 7 12 9 5 6 8 10 9 9 9 6 4 4 5 3 2 3 3 3 2 2 2 1 1 1 1 1 1 1 2 2 2 2 2 3 3 3 2 2 3 3 3 3
6 8 11 8 4 4 4 10 7 7 8 7 2 5 7 2 2 2 1 1 1 1 1 1 1 1 1 2 2 2 3 3 3 2 3 3 3 3 2 2 3 3 3 3
11 10 10 5 3 5 6 9 3 6 7 6 6 7 4 1 1 1 1 1 1 1 1 1 1 1 2 2 3 3 2 2 2 2 2 3 2 2 2 2 2 3 3 4
8 10 12 4 6 8 7 2 1 2 3 4 4 3 1 0 1 1 1 1 1 1 1 0 1 2 1 2 3 2 1 1 2 2 2 1 1 2 2 2 3 3 3 4
9 9 4 6 6 4 2 2 2 2 2 3 3 3 2 1 2 1 2 2 1 2 1 0 0 1 2 2 1 1 1 1 2 2 2 1 1 2 2 2 2 3 3 3
6 7 5 4 3 2 2 3 3 2 3 3 4 3 3 3 2 2 2 2 1 2 1 1 0 0 1 1 0 0 1 2 2 1 2 1 1 1 2 2 2 3 3 4
8 7 4 5 6 5 3 2 2 2 3 4 4 4 4 3 3 3 2 1 2 2 2 1 0 0 1 1 0 0 1 2 2 2 2 1 2 2 3 3 4 4 4 4
10 7 6 7 5 5 4 5 4 4 3 3 4 5 4 4 3 3 2 2 2 2 2 1 0 1 1 1 0 1 1 1 1 1 1 2 2 3 5 5 7 8 8 6
6 4 4 4 3 3 3 4 3 3 4 4 3 3 4 3 2 2 2 2 2 2 1 1 0 1 2 1 1 1 2 2 1 1 2 2 2 2 3 5 6 7 8 8
2 1 3 3 2 2 2 2 1 1 1 2 2 2 2 2 2 2 2 1 1 1 1 1 0 1 2 1 0 1 2 2 2 2 2 2 2 3 3 3 4 4 6 8
3 3 4 2 1 1 0 1 1 1 1 1 2 3 3 3 3 2 1 1 1 1 0 0 1 2 2 0 1 1 1 1 1 1 2 2 2 2 3 3 3 4 4 5
2 1 2 2 3 2 1 2 3 3 2 2 2 2 3 3 2 1 1 1 2 1 1 1 2 3 2 1 1 1 1 2 2 1 2 2 2 2 3 3 3 3 4 4
2 3 4 4 5 4 4 4 4 4 3 3 3 2 3 3 2 1 0 0 1 1 1 1 2 2 2 1 1 1 1 1 1 2 2 2 2 2 3 3 3 4 4 5
4 5 5 5 5 5 4 3 3 4 4 3 3 4 4 4 3 2 1 1 2 1 2 2 2 1 1 1 1 1 1 1 1 1 2 2 2 3 3 3 4 4 4 5
2 2 2 3 3 3 3 3 3 3 3 4 4 4 3 3 3 2 1 1 1 1 2 2 2 2 1 2 1 1 1 1 1 2 2 2 3 3 3 3 4 4 4 4
2 1 1 1 1 1 1 1 2 2 2 3 4 3 2 2 2 2 2 1 1 1 1 2 1 1 1 1 1 0 0 1 2 2 2 2 3 3 3 4 4 4 4 4
2 1 1 1 1 1 1 1 3 3 3 3 4 4 3 2 2 2 2 0 1 1 1 1 1 1 1 1 0 0 1 1 1 2 2 2 3 3 4 4 4 4 4 4
1 1 0 0 1 1 1 1 2 3 3 3 3 3 3 2 1 1 1 1 2 1 1 1 1 1 1 1 0 0 1 1 2 2 2 2 3 3 4 4 4 4 4 4
1 1 0 0 1 1 2 2 2 3 3 3 3 3 2 1 1 1 0 1 1 2 1 1 1 2 2 1 0 1 1 2 2 2 2 3 3 3 4 4 4 4 4 4
1 0 0 1 2 3 2 1 2 2 3 2 1 1 2 1 1 1 0 0 1 2 1 1 2 3 2 1 1 1 1 2 2 2 3 3 3 3 4 4 4 4 4 5
0 0 1 2 2 2 2 2 3 3 3 2 2 2 1 1 1 0 1 1 1 2 1 2 4 4 2 1 1 1 2 2 2 2 3 3 3 4 4 4 4 5 5 5
0 0 1 1 1 1 1 2 2 2 2 2 1 1 1 1 1 0 1 1 1 1 1 1 2 2 1 1 1 2 2 2 3 3 3 3 4 4 5 5 6 5 5 5
1 1 1 2 2 1 1 2 2 1 1 1 1 1 1 1 1 1 1 1 1 1 1 1 1 1 1 2 2 2 2 2 3 3 3 3 4 4 5 6 5 5 5 6
Wind_Direction
261 271 244 245 237 226 225 229 239 253 257 260 251 246 251 249 244 232 233 242 239 247 253 268 296 300 299 306 325 313 290 250 236 244 243 228 225 223 226 224 228 232 235 230
263 259 260 265 251 236 237 238 244 258 264 260 253 253 252 249 246 245 247 243 243 244 258 266 270 270 281 291 298 300 280 283 288 257 237 223 234 243 230 233 237 232 228 230
251 252 284 257 236 225 228 227 226 243 254 270 262 255 246 245 235 233 244 244 234 234 236 245 248 253 250 265 284 279 277 297 313 294 254 240 239 241 247 247 250 252 250 240
236 221 237 243 207 205 224 239 232 241 256 252 250 256 251 227 216 244 250 247 235 232 240 242 245 245 250 260 245 258 270 278 283 279 276 267 250 244 252 258 253 256 261 257
210 235 258 262 233 197 209 244 231 234 252 262 276 287 260 225 211 228 231 237 232 215 221 225 225 223 220 239 235 243 262 274 275 266 263 261 249 250 264 261 262 263 264 261
216 229 241 243 196 175 181 252 234 215 234 242 233 255 257 210 181 203 224 224 210 181 177 195 205 177 190 227 240 252 260 266 267 258 253 254 257 261 267 259 259 264 270 266
224 236 251 240 159 130 188 246 237 204 216 220 221 235 254 157 144 159 177 190 154 148 172 200 181 166 202 236 252 264 274 279 279 270 262 260 268 273 259 261 265 267 270 270
210 227 243 186 154 189 225 259 205 209 203 207 227 250 266 200 159 151 154 152 140 144 187 237 166 168 212 257 277 301 299 289 288 286 281 277 269 275 267 257 261 267 271 275
204 220 227 172 189 208 201 229 237 226 219 188 209 222 225 217 200 197 184 169 154 158 182 302 146 170 217 268 305 321 320 296 291 294 293 285 265 266 267 255 255 266 267 273
244 245 232 221 223 236 228 229 241 225 207 193 207 210 214 205 202 201 195 183 165 154 174 252 292 272 252 292 323 292 285 292 293 290 295 297 277 261 253 246 248 256 259 265
246 254 266 242 226 231 245 251 258 255 216 198 195 210 211 210 207 202 199 193 176 177 195 243 294 336 329 333 75 237 270 283 290 285 277 283 274 254 254 249 241 246 245 247
237 224 223 242 227 222 225 233 230 230 237 225 208 211 212 212 202 188 187 180 175 183 196 230 9 324 326 328 201 203 259 276 279 285 287 285 288 302 293 287 288 280 274 268
244 253 243 251 230 211 221 234 238 228 221 225 217 200 200 199 186 166 167 171 182 192 198 185 111 308 305 299 209 198 230 261 279 283 280 280 281 284 299 311 304 294 287 282
241 239 255 248 247 252 242 243 230 223 213 186 179 166 167 168 159 162 177 181 165 154 173 161 186 282 291 288 223 226 239 254 260 262 266 272 275 280 284 290 301 303 296 291
259 246 237 249 253 255 210 139 167 218 191 153 150 158 160 164 175 192 186 135 119 115 163 153 265 287 300 280 218 233 244 254 260 268 276 280 282 286 286 282 282 290 300 299
271 272 244 230 232 231 199 199 208 225 208 191 177 170 167 160 155 143 116 131 137 189 243 247 266 278 294 270 239 240 242 254 268 272 278 281 282 286 288 286 286 285 286 291
211 236 237 243 241 238 229 225 220 222 208 194 189 165 147 137 127 121 356 30 146 234 269 269 275 287 283 252 236 248 252 257 254 265 267 270 274 280 283 285 283 285 284 286
249 241 233 232 231 229 234 230 224 211 202 188 157 148 150 153 168 192 199 75 61 17 322 297 278 280 282 271 243 244 246 259 265 266 277 282 284 286 286 285 283 284 290 297
302 294 274 255 237 215 216 219 215 196 171 154 153 160 164 165 165 159 125 102 103 308 306 316 331 5 315 288 278 225 237 269 286 283 281 285 289 288 286 284 284 286 291 296
329 328 327 322 331 173 175 161 143 140 146 147 145 141 142 152 145 140 128 130 258 249 279 322 335 314 301 302 341 331 269 273 283 290 290 285 286 290 290 287 286 288 291 293
325 338 359 11 17 38 98 135 140 144 141 143 151 156 152 140 131 137 131 93 309 322 315 322 316 302 301 318 350 302 273 272 278 281 285 287 291 293 292 291 289 289 290 292
314 337 340 36 74 23 22 81 125 134 128 127 131 133 130 128 129 111 128 215 258 307 326 328 319 299 307 335 340 273 269 270 273 278 280 282 283 287 289 292 290 288 289 289
282 269 253 194 159 104 60 73 105 118 123 130 138 143 146 152 161 153 241 279 294 321 334 323 304 308 330 352 339 281 274 275 277 278 278 280 279 282 286 288 287 288 289 290
304 292 268 119 113 107 93 82 93 100 105 100 103 132 143 126 36 11 164 333 351 340 340 310 315 337 355 6 333 297 287 284 285 287 288 288 287 285 285 285 286 287 286 287
314 69 105 111 114 116 117 105 93 94 92 83 70 66 73 114 172 263 9 346 345 347 343 340 345 347 353 340 312 297 294 290 289 289 289 289 288 287 286 284 282 283 284 283
115 106 88 91 109 116 120 117 111 108 106 93 62 49 55 59 86 44 21 12 6 354 341 337 342 342 339 329 316 305 300 303 304 296 289 289 288 287 286 287 285 282 282 282
74 80 83 72 63 80 100 107 114 115 117 121 90 44 48 49 50 43 33 13 359 353 347 344 343 338 330 323 315 307 301 297 294 291 291 287 285 284 286 286 284 283 283 283